Terug naar catalogus

NAXING-2

ActiefWetenschapPO
NORAD 40905·PAYLOAD·🇨🇳 China
Deze satellietnaam is nog niet bevestigd door officiële bronnen.

Gelanceerd Sep 19, 2015 vanaf Taiyuan Satellite Launch Center

Loading…

Volgende Passages (komende 24 uur)

TLE

VersSource: Space-Track

Epoch: Sep 14, 2026, 14:03 UTC

1 40905U 15049G   26257.58608100  .00048730  00000-0  33773-3 0  9995
2 40905  97.4439 307.5017 0003524 210.8067 149.2991 15.74343035610475

Volg NAXING-2 in realtime met AllMySat

Download on the App Store